Location: Dehesa de la Cepeda
(40.6574°N, 4.3013°W)
Time: 05:07:34
(UTC+00:00)

Courier 1B Rocket - Pass Details

Date: 05 August 2021
Orbit: 920 x 1202 km, 28.3° (Epoch: 19 September)

Event Time Altitude Azimuth Distance (km) Brightness Sun altitude
Exits shadow 04:42:34 - 242° (WSW) 2,891 6.8 -6.8°
Reaches altitude 10° 04:43:21 10° 237° (WSW) 2,709 6.6 -6.7°
Maximum altitude 04:47:13 17° 200° (SSW) 2,225 6.5 -6.1°
Drops below altitude 10° 04:51:00 10° 163° (SSE) 2,627 7.2 -5.4°
Sets 04:54:35 0° 143° (SE) 3,548 8.1 -4.8°
